This demonstration page uses our WeatherBlox Daily Observations layout. Learn more.

Hourly Observations for December 2, 2019

Temp ( °F °C ) Dew Point ( °F °C ) Humidity (%) Winds ( mph kmh ) Pressure ( in mb ) Visibility ( mi km ) Precip ( " mm )
12:54 am 00:54 Clear 24 -4.4 17 -8.3 75 75 WNW 9 15 30.26 1025 10 16.0934 0 0
1:54 am 01:54 Clear 22 -5.6 16 -8.9 78 78 NNW 7 11 30.25 1025 10 16.0934 0 0
2:54 am 02:54 Clear 21 -6.1 15 -9.4 78 78 WNW 3 6 30.27 1025 10 16.0934 0 0
3:54 am 03:54 Clear 21 -6.1 16 -8.9 81 81 NW 5 7 30.26 1025 10 16.0934 0 0
4:54 am 04:54 Clear 20 -6.7 15 -9.4 81 81 W 5 7 30.28 1025 10 16.0934 0 0
5:54 am 05:54 Clear 20 -6.7 15 -9.4 81 81 W 7 11 30.3 1026 10 16.0934 0 0
6:54 am 06:54 Clear 18 -7.8 13 -10.6 81 81 E 3 6 30.27 1025 10 16.0934 0 0
7:54 am 07:54 Sunny 19 -7.2 15 -9.4 84 84 S 3 6 30.27 1025 10 16.0934 0 0
8:54 am 08:54 Sunny 22 -5.6 18 -7.8 85 85 WSW 3 6 30.28 1026 10 16.0934 0 0
9:54 am 09:54 Sunny 26 -3.3 20 -6.7 78 78 SSW 5 7 30.27 1025 10 16.0934 0 0
10:54 am 10:54 Sunny 31 -0.6 19 -7.2 61 61 SSW 6 9 30.25 1024 10 16.0934 0 0
11:54 am 11:54 Sunny 36 2.2 19 -7.2 50 50 S 8 13 30.21 1023 10 16.0934 0 0
12:54 pm 12:54 Sunny 40 4.4 15 -9.4 36 36 SW 9 15 30.17 1022 10 16.0934 0 0
1:54 pm 13:54 Sunny 42 5.6 15 -9.4 33 33 SSW 9 15 30.13 1020 10 16.0934 0 0
2:54 pm 14:54 Sunny 43 6.1 19 -7.2 38 38 SSW 9 15 30.1 1019 10 16.0934 0 0
3:54 pm 15:54 Sunny 42 5.6 20 -6.7 41 41 S 9 15 30.08 1019 10 16.0934 0 0
4:54 pm 16:54 Sunny 38 3.3 19 -7.2 46 46 S 7 11 30.07 1018 10 16.0934 0 0
5:54 pm 17:54 Clear 33 0.6 20 -6.7 58 58 S 6 9 30.07 1018 10 16.0934 0 0
6:54 pm 18:54 Clear 30 -1.1 20 -6.7 66 66 S 8 13 30.06 1018 10 16.0934 0 0
7:54 pm 19:54 Clear 33 0.6 20 -6.7 58 58 SSE 8 13 30.04 1017 10 16.0934 0 0
8:54 pm 20:54 Clear 37 2.8 20 -6.7 50 50 SW 6 9 30.03 1017 10 16.0934 0 0
9:54 pm 21:54 Clear 38 3.3 20 -6.7 48 48 SW 8 13 30 1016 10 16.0934 0 0
10:54 pm 22:54 Clear 37 2.8 20 -6.7 50 50 WSW 7 11 29.98 1015 10 16.0934 0 0
11:54 pm 23:54 Clear 36 2.2 21 -6.1 55 55 W 6 9 29.97 1015 10 16.0934 0 0

Powered by AerisWeather